Tracking 28506 objects as of 21-Feb-2024
HD Live streaming from Space Station
objects crossing your sky now

SCOUT A DEB

Track SCOUT A DEB now!
10-day predictions


NORAD ID: 3214
Int'l Code: 1968-012D
Perigee: 1,015.8 km
Apogee: 1,300.4 km
Inclination: 89.9 °
Period: 108.4 minutes
Semi major axis: 7529 km
RCS: 0.049 m2 (small)
Launch date: March 2, 1968
Source: United States (US)
Launch site: AIR FORCE WESTERN TEST RANGE (AFWTR)

Note: This is SATELLITE DEBRIS
Your satellite tracking list
Your tracking list is empty




NASA's NSSDC Master Catalog

Two Line Element Set (TLE):
1  3214U 68012D   24052.15942713  .00000175  00000-0  32326-3 0  9994
2  3214  89.8593 117.0668 0189002  99.5249 290.9476 13.28890586708508
Source of the keplerian elements: AFSPC